Weather History for KCRE - May, 2014

Change the Weather History Date:

Wednesday, May 21, 2014

  Actual Average Record
Temperature  
Mean Temperature 73 °F 71 °F  
Max Temperature 82 °F 80 °F 91 °F (1998)
Min Temperature 63 °F 62 °F 43 °F (2002)
Degree Days  
Heating Degree Days 0 0  
Month to date heating degree days 9 23  
Since 1 July heating degree days 2586 2446  
Cooling Degree Days 8 6  
Month to date cooling degree days 133 94  
Year to date cooling degree days 175 136  
Growing Degree Days 22 (Base 50)    
Moisture  
Dew Point 61 °F    
Average Humidity 67    
Maximum Humidity 84    
Minimum Humidity 50    
Precipitation  
Precipitation 0.00 in 0.11 in 0.36 in (2001)
Month to date precipitation 1.05 2.16  
Year to date precipitation 12.44 16.15  
Sea Level Pressure  
Sea Level Pressure 30.08 in    
Wind  
Wind Speed 12 mph (SW)    
Max Wind Speed 24 mph    
Max Gust Speed 29 mph    
Visibility 10 miles    
Events      
T = Trace of Precipitation, MM = Missing Value Source: NWS Daily Summary

Daily Weather History Graph

Daily Weather History Graph

Search for Another Location

Airport or City:

Trip Planner

Search our weather history database for the weather conditions in past years. The results will help you decide how hot, cold, wet, or windy it might be!

Date:

Astronomy

May. 21, 2014 Rise Set
Actual Time 6:09 AM EDT 8:13 PM EDT
Civil Twilight 5:42 AM EDT 8:41 PM EDT
Nautical Twilight 5:08 AM EDT 9:15 PM EDT
Astronomical Twilight 4:31 AM EDT 9:52 PM EDT
Moon 1:29 AM EDT (5/21) 1:12 PM EDT (5/21)
Length of Visible Light 14h 59m
Length of Day
14h 03m
Waning Gibbous, 49% of the Moon is Illuminated
May 21
Waning Gibbous
May 28
New
Jun 5
First Quarter
Jun 13
Full
Jun 19
Last Quarter

Hourly Weather History & Observations

Time (EDT) Temp. Heat Index Dew Point Humidity Pressure Visibility Wind Dir Wind Speed Gust Speed Precip Events Conditions
12:53 AM 64.9 °F - 53.1 °F 65% 30.16 in 10.0 mi SW 6.9 mph - N/A   Clear
1:53 AM 66.0 °F - 52.0 °F 60% 30.15 in 10.0 mi WSW 4.6 mph - N/A   Clear
2:53 AM 64.9 °F - 54.0 °F 68% 30.14 in 10.0 mi SW 10.4 mph - N/A   Clear
3:53 AM 64.9 °F - 53.1 °F 65% 30.13 in 10.0 mi SW 8.1 mph - N/A   Clear
4:53 AM 64.0 °F - 54.0 °F 70% 30.13 in 10.0 mi WSW 5.8 mph - N/A   Clear
5:53 AM 64.0 °F - 54.0 °F 70% 30.13 in 10.0 mi WSW 10.4 mph - N/A   Clear
6:53 AM 64.0 °F - 55.0 °F 73% 30.15 in 10.0 mi WSW 8.1 mph - N/A   Clear
7:53 AM 66.9 °F - 55.9 °F 68% 30.15 in 10.0 mi WSW 12.7 mph - N/A   Clear
8:53 AM 71.1 °F - 55.0 °F 57% 30.15 in 10.0 mi SW 9.2 mph - N/A   Clear
9:53 AM 75.9 °F - 55.9 °F 50% 30.16 in 10.0 mi WSW 11.5 mph - N/A   Clear
10:53 AM 79.0 °F - 60.1 °F 52% 30.14 in 10.0 mi SW 10.4 mph - N/A   Clear
11:53 AM 81.0 °F 81.9 °F 62.1 °F 52% 30.12 in 10.0 mi SSW 12.7 mph 18.4 mph N/A   Clear
12:53 PM 81.0 °F 82.5 °F 64.0 °F 56% 30.10 in 10.0 mi SSW 12.7 mph - N/A   Clear
2:53 PM 79.0 °F - 66.0 °F 64% 30.06 in 10.0 mi SSW 18.4 mph - N/A   Partly Cloudy
3:53 PM 79.0 °F - 66.0 °F 64% 30.04 in 10.0 mi SSW 17.3 mph 26.5 mph N/A   Clear
4:53 PM 79.0 °F - 66.9 °F 66% 30.01 in 10.0 mi SSW 17.3 mph - N/A   Clear
5:53 PM 77.0 °F - 66.9 °F 71% 30.00 in 10.0 mi SSW 17.3 mph - N/A   Clear
6:53 PM 75.9 °F - 68.0 °F 76% 30.00 in 10.0 mi SW 15.0 mph - N/A   Clear
7:53 PM 73.9 °F - 68.0 °F 82% 29.99 in 9.0 mi SSW 15.0 mph - N/A   Clear
8:53 PM 73.0 °F - 68.0 °F 84% 29.99 in 10.0 mi SW 15.0 mph - N/A   Clear
9:53 PM 73.0 °F - 66.9 °F 81% 30.01 in 10.0 mi SW 17.3 mph - N/A   Clear
10:53 PM 73.0 °F - 66.9 °F 81% 30.01 in 10.0 mi SW 10.4 mph - N/A   Clear
11:53 PM 72.0 °F - 66.0 °F 81% 30.01 in 10.0 mi SW 9.2 mph - N/A   Clear